DLH7K EDDF-KBOS

Flight info

Callsign DLH7K
Flight time N/A
Altitude 34000
Route OBOKA3M/25C OBOKA Z29 TORNU DCT VICOT DCT GALSO Q63 ERING L179 UGBET Q60 OKSAW DCT BIBPE DCT TIGWE/N0470F360 DCT FELCA DCT FADZU DCT NICXI DCT OFSOX DCT SLANY DCT DIMUS DCT MALOT/M082F370 NATE RIKAL/N0473F380 N572A TOPPS DCT AJJAY OOSHN5
Aircraft A346/H-SDE2E3FGHIJ3J4J5M1RWXY/LB1D1

Departure

Time 2026-05-05 11:53
Airport Frankfurt Main Airport (EDDF)

Arrival

Time N/A
Airport Boston Logan International Airport (KBOS)
Time Latitude Longitude Altitude Speed Heading
2026-05-05 10:35 50.04768 8.56501 370 ft 0 kts 339°
2026-05-05 11:27 50.04747 8.56513 389 ft 4 kts 337°
2026-05-05 11:27 50.04722 8.56529 365 ft 4 kts 340°
2026-05-05 11:28 50.04698 8.56538 368 ft 4 kts 359°
2026-05-05 11:28 50.04682 8.56533 369 ft 3 kts 26°
2026-05-05 11:28 50.04658 8.56516 371 ft 4 kts 22°
2026-05-05 11:28 50.04633 8.56500 368 ft 3 kts 24°
2026-05-05 11:29 50.04641 8.56504 369 ft 4 kts 18°
2026-05-05 11:29 50.04659 8.56503 370 ft 4 kts 341°
2026-05-05 11:29 50.04672 8.56484 365 ft 4 kts 305°
2026-05-05 11:29 50.04680 8.56457 368 ft 4 kts 276°
2026-05-05 11:30 50.04674 8.56428 367 ft 3 kts 245°
2026-05-05 11:30 50.04673 8.56427 366 ft 4 kts 208°
2026-05-05 11:30 50.04661 8.56429 367 ft 4 kts 164°
2026-05-05 11:30 50.04664 8.56429 368 ft 4 kts 184°
2026-05-05 11:31 50.04663 8.56422 369 ft 4 kts 233°
2026-05-05 11:31 50.04659 8.56405 370 ft 0 kts 250°
2026-05-05 11:35 50.04657 8.56396 367 ft 3 kts 249°
2026-05-05 11:35 50.04644 8.56344 368 ft 0 kts 250°
2026-05-05 11:36 50.04634 8.56301 366 ft 8 kts 250°
2026-05-05 11:36 50.04605 8.56174 366 ft 16 kts 249°
2026-05-05 11:36 50.04555 8.55995 369 ft 18 kts 232°
2026-05-05 11:36 50.04445 8.55918 369 ft 18 kts 195°
2026-05-05 11:37 50.04322 8.55946 367 ft 9 kts 161°
2026-05-05 11:37 50.04314 8.55950 368 ft 3 kts 165°
2026-05-05 11:37 50.04271 8.55951 368 ft 10 kts 194°
2026-05-05 11:37 50.04182 8.55923 365 ft 16 kts 169°
2026-05-05 11:38 50.04082 8.56008 368 ft 16 kts 114°
2026-05-05 11:38 50.04105 8.56184 366 ft 17 kts 70°
2026-05-05 11:38 50.04146 8.56353 366 ft 16 kts 68°
2026-05-05 11:38 50.04185 8.56517 367 ft 16 kts 69°
2026-05-05 11:39 50.04223 8.56678 369 ft 15 kts 70°
2026-05-05 11:39 50.04259 8.56831 370 ft 15 kts 69°
2026-05-05 11:39 50.04296 8.56985 373 ft 15 kts 69°
2026-05-05 11:39 50.04333 8.57138 371 ft 15 kts 70°
2026-05-05 11:40 50.04370 8.57294 372 ft 16 kts 70°
2026-05-05 11:40 50.04409 8.57458 371 ft 16 kts 69°
2026-05-05 11:40 50.04449 8.57623 374 ft 16 kts 69°
2026-05-05 11:40 50.04487 8.57785 375 ft 17 kts 70°
2026-05-05 11:41 50.04527 8.57957 376 ft 17 kts 70°
2026-05-05 11:41 50.04572 8.58141 375 ft 19 kts 68°
2026-05-05 11:41 50.04619 8.58330 378 ft 19 kts 70°
2026-05-05 11:41 50.04648 8.58453 380 ft 9 kts 70°
2026-05-05 11:42 50.04643 8.58546 380 ft 10 kts 134°
2026-05-05 11:42 50.04617 8.58572 378 ft 2 kts 157°
2026-05-05 11:42 50.04611 8.58576 380 ft 0 kts 158°
2026-05-05 11:46 50.04609 8.58577 380 ft 2 kts 158°
2026-05-05 11:46 50.04579 8.58597 382 ft 7 kts 158°
2026-05-05 11:46 50.04513 8.58607 382 ft 12 kts 198°
2026-05-05 11:47 50.04469 8.58513 381 ft 0 kts 250°
2026-05-05 11:47 50.04469 8.58512 381 ft 0 kts 250°
2026-05-05 11:51 50.04440 8.58390 381 ft 37 kts 250°
2026-05-05 11:52 50.04281 8.57728 372 ft 94 kts 250°
2026-05-05 11:52 50.03994 8.56523 367 ft 142 kts 250°
2026-05-05 11:52 50.03596 8.54865 359 ft 183 kts 249°
2026-05-05 11:52 50.03113 8.52898 657 ft 193 kts 248°
2026-05-05 11:53 50.02587 8.50975 1216 ft 190 kts 246°
2026-05-05 11:53 50.01943 8.49199 1725 ft 192 kts 229°
2026-05-05 11:53 50.00917 8.47862 2222 ft 193 kts 205°
2026-05-05 11:53 49.99666 8.47476 2476 ft 203 kts 183°
2026-05-05 11:54 49.98232 8.47349 2455 ft 207 kts 185°
2026-05-05 11:54 49.96801 8.47058 2440 ft 208 kts 190°
2026-05-05 11:54 49.95392 8.46605 2475 ft 215 kts 193°
2026-05-05 11:54 49.93872 8.45996 2478 ft 234 kts 195°
2026-05-05 11:55 49.92287 8.45250 2458 ft 240 kts 205°
2026-05-05 11:55 49.90931 8.43625 2474 ft 253 kts 233°
2026-05-05 11:55 49.89989 8.41308 2486 ft 255 kts 239°
2026-05-05 11:55 49.89091 8.38911 2477 ft 256 kts 242°
2026-05-05 11:56 49.88567 8.36278 2463 ft 258 kts 265°
2026-05-05 11:56 49.88621 8.33505 2483 ft 261 kts 275°
2026-05-05 11:56 49.88792 8.30686 2487 ft 263 kts 275°
2026-05-05 11:56 49.89027 8.27814 2881 ft 271 kts 284°
2026-05-05 11:57 49.89736 8.25125 3722 ft 268 kts 301°
2026-05-05 11:57 49.90792 8.22786 4481 ft 268 kts 305°
2026-05-05 11:57 49.91923 8.20458 5189 ft 271 kts 305°
2026-05-05 11:57 49.93064 8.18103 5934 ft 275 kts 306°
2026-05-05 11:58 49.94321 8.15813 6548 ft 280 kts 313°
2026-05-05 11:58 49.95755 8.13716 7216 ft 283 kts 317°
2026-05-05 11:58 49.97241 8.11727 7896 ft 286 kts 318°
2026-05-05 11:58 49.98770 8.09705 8565 ft 289 kts 318°
2026-05-05 11:59 50.00309 8.07664 9248 ft 292 kts 318°
2026-05-05 11:59 50.01864 8.05594 9888 ft 296 kts 318°
2026-05-05 11:59 50.03447 8.03480 10338 ft 306 kts 318°
2026-05-05 11:59 50.05100 8.01264 10617 ft 321 kts 318°
2026-05-05 12:00 50.06830 7.98944 10912 ft 336 kts 318°
2026-05-05 12:00 50.08645 7.96505 11193 ft 351 kts 318°
2026-05-05 12:00 50.10538 7.93960 11473 ft 366 kts 318°
2026-05-05 12:00 50.12506 7.91310 11734 ft 381 kts 318°
2026-05-05 12:01 50.14521 7.88596 12149 ft 391 kts 318°
2026-05-05 12:01 50.16594 7.85806 12781 ft 394 kts 318°
2026-05-05 12:01 50.18677 7.82996 13460 ft 397 kts 317°
2026-05-05 12:01 50.20789 7.80140 14053 ft 401 kts 317°
2026-05-05 12:02 50.22887 7.77308 14602 ft 405 kts 319°
2026-05-05 12:02 50.25158 7.74641 15161 ft 409 kts 325°
2026-05-05 12:02 50.27603 7.72379 15730 ft 413 kts 332°
2026-05-05 12:02 50.30242 7.70444 16290 ft 417 kts 335°
2026-05-05 12:03 50.32884 7.68659 16844 ft 420 kts 336°
2026-05-05 12:03 50.35603 7.66837 17393 ft 424 kts 335°
2026-05-05 12:03 50.38328 7.64991 17949 ft 427 kts 335°
2026-05-05 12:03 50.41069 7.63117 18423 ft 431 kts 335°
2026-05-05 12:04 50.43824 7.61225 18911 ft 434 kts 335°
2026-05-05 12:04 50.46569 7.59333 19382 ft 437 kts 335°
2026-05-05 12:04 50.49248 7.57484 19823 ft 440 kts 335°
2026-05-05 12:04 50.51937 7.55336 20231 ft 442 kts 323°
2026-05-05 12:05 50.54205 7.52091 20690 ft 441 kts 309°
2026-05-05 12:05 50.56082 7.48276 21205 ft 440 kts 302°
2026-05-05 12:05 50.57799 7.44259 21648 ft 444 kts 301°
2026-05-05 12:05 50.59502 7.40165 22046 ft 448 kts 301°
2026-05-05 12:06 50.61186 7.36133 22484 ft 451 kts 301°
2026-05-05 12:06 50.62952 7.31941 22930 ft 454 kts 301°
2026-05-05 12:06 50.64712 7.27791 23376 ft 457 kts 301°
2026-05-05 12:06 50.66497 7.23604 23739 ft 460 kts 301°
2026-05-05 12:07 50.68304 7.19370 24128 ft 462 kts 301°
2026-05-05 12:07 50.70014 7.15069 24552 ft 462 kts 298°
2026-05-05 12:07 50.71651 7.10678 24966 ft 463 kts 297°
2026-05-05 12:07 50.73275 7.06265 25369 ft 465 kts 297°
2026-05-05 12:08 50.74905 7.01847 25759 ft 466 kts 297°
2026-05-05 12:08 50.76547 6.97413 26143 ft 468 kts 297°
2026-05-05 12:08 50.78180 6.93016 26515 ft 470 kts 297°
2026-05-05 12:08 50.79844 6.88547 26895 ft 472 kts 297°
2026-05-05 12:09 50.81519 6.84046 27280 ft 473 kts 297°
2026-05-05 12:09 50.83192 6.79549 27647 ft 475 kts 297°
2026-05-05 12:09 50.84869 6.75036 28162 ft 473 kts 297°
2026-05-05 12:09 50.86537 6.70545 28747 ft 470 kts 296°
2026-05-05 12:10 50.88190 6.66089 29341 ft 466 kts 296°
2026-05-05 12:10 50.89807 6.61718 29893 ft 464 kts 296°
2026-05-05 12:10 50.91443 6.57280 30355 ft 462 kts 297°
2026-05-05 12:10 50.93072 6.52853 30644 ft 463 kts 297°
2026-05-05 12:11 50.94703 6.48429 30906 ft 465 kts 296°
2026-05-05 12:11 50.96333 6.44003 31293 ft 464 kts 296°
2026-05-05 12:11 50.97409 6.41075 31577 ft 462 kts 296°
2026-05-05 12:11 50.99027 6.36666 31985 ft 460 kts 296°
2026-05-05 12:12 51.00633 6.32279 32364 ft 459 kts 295°
2026-05-05 12:12 51.02761 6.26443 32781 ft 459 kts 295°
2026-05-05 12:12 51.03846 6.23464 32980 ft 460 kts 295°
2026-05-05 12:12 51.05449 6.19050 33256 ft 461 kts 295°
2026-05-05 12:13 51.07032 6.14689 33567 ft 461 kts 295°
2026-05-05 12:13 51.08658 6.10199 33784 ft 464 kts 295°
2026-05-05 12:13 51.11886 6.01261 33877 ft 466 kts 295°
2026-05-05 12:14 51.15106 5.92291 33880 ft 465 kts 294°
2026-05-05 12:14 51.17896 5.83080 33884 ft 461 kts 287°
2026-05-05 12:15 51.20033 5.73467 33896 ft 456 kts 281°
2026-05-05 12:15 51.21753 5.63706 33903 ft 457 kts 280°
2026-05-05 12:16 51.23437 5.53955 33900 ft 457 kts 280°
2026-05-05 12:16 51.25128 5.44146 33910 ft 457 kts 280°
2026-05-05 12:17 51.26814 5.34329 33909 ft 457 kts 280°
2026-05-05 12:17 51.28492 5.24511 33926 ft 457 kts 280°
2026-05-05 12:18 51.30159 5.14698 33914 ft 458 kts 280°
2026-05-05 12:18 51.31828 5.04824 33913 ft 459 kts 280°
2026-05-05 12:19 51.33489 4.94934 33913 ft 458 kts 280°
2026-05-05 12:19 51.35135 4.85082 33915 ft 458 kts 279°
2026-05-05 12:20 51.36776 4.75202 33931 ft 459 kts 279°
2026-05-05 12:20 51.38417 4.65264 33915 ft 461 kts 279°
2026-05-05 12:21 51.40043 4.55367 33913 ft 461 kts 279°
2026-05-05 12:21 51.41670 4.45399 33913 ft 461 kts 279°
2026-05-05 12:22 51.43281 4.35476 33908 ft 461 kts 279°
2026-05-05 12:22 51.44894 4.25485 33914 ft 461 kts 279°
2026-05-05 12:23 51.46484 4.15560 33910 ft 461 kts 279°